Time,TemperatureF,DewpointF,PressureIn,WindDirection,WindDirectionDegrees,WindSpeedMPH,WindSpeedGustMPH,Humidity,HourlyPrecipIn,Conditions,Clouds,dailyrainin,SoftwareType,DateUTC
2014-01-02 00:05:00,47.0,45.0,30.08,NE,35,0.0,-999.0,91,-99.99,,,0.00,weatherlink.com 1.10,2014-01-02 05:05:00,
2014-01-02 00:20:00,47.0,45.0,30.07,North,353,0.0,-999.0,91,-99.99,,,0.00,weatherlink.com 1.10,2014-01-02 05:20:00,
2014-01-02 00:35:00,47.0,45.0,30.06,North,353,0.0,-999.0,92,-99.99,,,0.00,weatherlink.com 1.10,2014-01-02 05:35:00,
2014-01-02 00:50:00,46.8,45.0,30.05,North,357,0.0,-999.0,92,-99.99,,,0.00,weatherlink.com 1.10,2014-01-02 05:50:00,
2014-01-02 01:05:00,46.8,45.0,30.05,North,357,0.0,-999.0,92,-99.99,,,0.00,weatherlink.com 1.10,2014-01-02 06:05:00,
2014-01-02 01:20:00,46.8,45.0,30.04,North,0,0.0,-999.0,93,-99.99,,,0.00,weatherlink.com 1.10,2014-01-02 06:20:00,
2014-01-02 01:35:00,46.8,45.0,30.03,NNW,343,0.0,-999.0,93,-99.99,,,0.00,weatherlink.com 1.10,2014-01-02 06:35:00,
2014-01-02 01:50:00,46.7,45.0,30.04,North,349,0.0,-999.0,93,-99.99,,,0.00,weatherlink.com 1.10,2014-01-02 06:50:00,
2014-01-02 02:05:00,46.4,45.0,30.04,North,349,0.0,-999.0,93,-99.99,,,0.00,weatherlink.com 1.10,2014-01-02 07:05:00,
2014-01-02 02:20:00,46.2,44.0,30.04,NNW,337,0.0,-999.0,93,-99.99,,,0.00,weatherlink.com 1.10,2014-01-02 07:20:00,
2014-01-02 02:35:00,46.2,45.0,30.03,NNW,346,0.0,-999.0,94,-99.99,,,0.00,weatherlink.com 1.10,2014-01-02 07:35:00,
2014-01-02 02:50:00,46.2,45.0,30.02,North,353,0.0,-999.0,94,-99.99,,,0.00,weatherlink.com 1.10,2014-01-02 07:50:00,
2014-01-02 03:05:00,46.2,45.0,30.01,North,353,0.0,-999.0,94,-99.99,,,0.00,weatherlink.com 1.10,2014-01-02 08:05:00,
2014-01-02 03:20:00,46.4,45.0,30.00,North,353,0.0,-999.0,94,-99.99,,,0.00,weatherlink.com 1.10,2014-01-02 08:20:00,
2014-01-02 03:35:00,46.4,45.0,30.00,North,353,0.0,-999.0,94,-99.99,,,0.00,weatherlink.com 1.10,2014-01-02 08:35:00,
2014-01-02 03:49:00,46.5,45.0,30.01,North,353,0.0,-999.0,94,-99.99,,,0.00,weatherlink.com 1.10,2014-01-02 08:49:00,
2014-01-02 04:04:00,46.4,45.0,30.00,NNW,337,0.0,-999.0,94,-99.99,,,0.00,weatherlink.com 1.10,2014-01-02 09:04:00,
2014-01-02 04:19:00,46.1,45.0,29.99,NNW,339,0.0,-999.0,94,-99.99,,,0.00,weatherlink.com 1.10,2014-01-02 09:19:00,
2014-01-02 04:34:00,46.1,45.0,29.98,NNW,339,0.0,-999.0,95,-99.99,,,0.00,weatherlink.com 1.10,2014-01-02 09:34:00,
2014-01-02 04:50:00,46.0,45.0,29.98,NNW,346,0.0,-999.0,95,-99.99,,,0.00,weatherlink.com 1.10,2014-01-02 09:50:00,
2014-01-02 05:05:00,45.8,45.0,29.98,NNW,335,0.0,-999.0,95,-99.99,,,0.00,weatherlink.com 1.10,2014-01-02 10:05:00,
2014-01-02 05:20:00,45.8,45.0,29.98,NNW,335,0.0,-999.0,95,-99.99,,,0.00,weatherlink.com 1.10,2014-01-02 10:20:00,
2014-01-02 05:35:00,46.0,45.0,29.96,NNW,335,0.0,-999.0,95,-99.99,,,0.00,weatherlink.com 1.10,2014-01-02 10:35:00,
2014-01-02 05:50:00,46.0,45.0,29.95,NNW,335,0.0,-999.0,95,-99.99,,,0.00,weatherlink.com 1.10,2014-01-02 10:50:00,
2014-01-02 06:05:00,46.1,45.0,29.94,NNW,335,0.0,-999.0,95,-99.99,,,0.00,weatherlink.com 1.10,2014-01-02 11:05:00,
2014-01-02 06:20:00,46.1,45.0,29.95,NNW,335,0.0,-999.0,95,-99.99,,,0.00,weatherlink.com 1.10,2014-01-02 11:20:00,
2014-01-02 06:35:00,46.4,45.0,29.95,NNW,335,0.0,-999.0,95,-99.99,,,0.00,weatherlink.com 1.10,2014-01-02 11:35:00,
2014-01-02 06:50:00,46.5,45.0,29.95,NNW,335,0.0,-999.0,95,-99.99,,,0.00,weatherlink.com 1.10,2014-01-02 11:50:00,
2014-01-02 07:05:00,46.7,45.0,29.93,NNW,335,0.0,-999.0,95,-99.99,,,0.00,weatherlink.com 1.10,2014-01-02 12:05:00,
2014-01-02 07:21:00,46.8,46.0,29.94,NNW,335,0.0,-999.0,95,-99.99,,,0.00,weatherlink.com 1.10,2014-01-02 12:21:00,
2014-01-02 07:35:00,46.8,46.0,29.95,NNW,335,0.0,-999.0,95,-99.99,,,0.00,weatherlink.com 1.10,2014-01-02 12:35:00,
2014-01-02 07:50:00,47.0,46.0,29.94,NNW,335,0.0,-999.0,95,-99.99,,,0.00,weatherlink.com 1.10,2014-01-02 12:50:00,
2014-01-02 08:05:00,47.1,46.0,29.93,NNW,335,0.0,-999.0,96,-99.99,,,0.00,weatherlink.com 1.10,2014-01-02 13:05:00,
2014-01-02 08:20:00,47.3,46.0,29.93,NNW,335,0.0,-999.0,96,-99.99,,,0.00,weatherlink.com 1.10,2014-01-02 13:20:00,
2014-01-02 08:35:00,47.6,47.0,29.93,NNW,335,0.0,-999.0,96,-99.99,,,0.00,weatherlink.com 1.10,2014-01-02 13:35:00,
2014-01-02 08:50:00,47.7,47.0,29.92,NNW,335,0.0,-999.0,96,-99.99,,,0.00,weatherlink.com 1.10,2014-01-02 13:50:00,
2014-01-02 09:05:00,47.9,47.0,29.90,ENE,59,0.0,-999.0,96,-99.99,,,0.00,weatherlink.com 1.10,2014-01-02 14:05:00,
2014-01-02 09:20:00,48.2,47.0,29.89,ENE,59,0.0,-999.0,96,-99.99,,,0.00,weatherlink.com 1.10,2014-01-02 14:20:00,
2014-01-02 09:35:00,48.3,47.0,29.90,ENE,59,0.0,-999.0,96,-99.99,,,0.00,weatherlink.com 1.10,2014-01-02 14:35:00,
2014-01-02 09:50:00,48.5,48.0,29.88,ENE,59,0.0,-999.0,96,-99.99,,,0.00,weatherlink.com 1.10,2014-01-02 14:50:00,
2014-01-02 10:05:00,48.6,48.0,29.88,SE,140,0.0,-999.0,96,-99.99,,,0.00,weatherlink.com 1.10,2014-01-02 15:05:00,
2014-01-02 10:20:00,48.8,48.0,29.89,SE,140,0.0,-999.0,96,-99.99,,,0.00,weatherlink.com 1.10,2014-01-02 15:20:00,
2014-01-02 10:35:00,49.1,48.0,29.87,SE,140,0.0,-999.0,96,-99.99,,,0.00,weatherlink.com 1.10,2014-01-02 15:35:00,
2014-01-02 10:50:00,49.4,48.0,29.84,East,82,0.0,-999.0,96,-99.99,,,0.00,weatherlink.com 1.10,2014-01-02 15:50:00,
2014-01-02 11:05:00,49.6,49.0,29.84,ENE,75,0.0,-999.0,96,-99.99,,,0.00,weatherlink.com 1.10,2014-01-02 16:05:00,
2014-01-02 11:20:00,50.1,49.0,29.83,ENE,75,0.0,-999.0,96,-99.99,,,0.00,weatherlink.com 1.10,2014-01-02 16:20:00,
2014-01-02 11:35:00,50.2,49.0,29.82,ENE,75,0.0,-999.0,96,-99.99,,,0.00,weatherlink.com 1.10,2014-01-02 16:35:00,
2014-01-02 11:50:00,50.5,49.0,29.80,SSE,157,0.0,-999.0,96,-99.99,,,0.00,weatherlink.com 1.10,2014-01-02 16:50:00,
2014-01-02 12:05:00,50.5,49.0,29.79,SSE,157,0.0,-999.0,96,-99.99,,,0.00,weatherlink.com 1.10,2014-01-02 17:05:00,
2014-01-02 12:20:00,50.7,49.0,29.78,SSE,157,0.0,-999.0,95,-99.99,,,0.00,weatherlink.com 1.10,2014-01-02 17:20:00,
2014-01-02 12:35:00,50.8,50.0,29.77,SSE,157,0.0,-999.0,95,-99.99,,,0.00,weatherlink.com 1.10,2014-01-02 17:35:00,
2014-01-02 12:50:00,51.0,50.0,29.76,SSE,157,0.0,-999.0,95,-99.99,,,0.00,weatherlink.com 1.10,2014-01-02 17:50:00,
2014-01-02 13:05:00,51.3,50.0,29.75,SSE,157,0.0,-999.0,96,-99.99,,,0.00,weatherlink.com 1.10,2014-01-02 18:05:00,
2014-01-02 13:20:00,51.3,50.0,29.73,SSE,157,0.0,-999.0,95,-99.99,,,0.00,weatherlink.com 1.10,2014-01-02 18:20:00,
2014-01-02 13:35:00,51.3,50.0,29.73,ENE,62,0.0,-999.0,96,-99.99,,,0.00,weatherlink.com 1.10,2014-01-02 18:35:00,
2014-01-02 13:50:00,51.4,50.0,29.72,ENE,62,0.0,-999.0,95,-99.99,,,0.00,weatherlink.com 1.10,2014-01-02 18:50:00,
2014-01-02 14:05:00,51.4,50.0,29.72,ENE,62,0.0,-999.0,95,-99.99,,,0.00,weatherlink.com 1.10,2014-01-02 19:05:00,
2014-01-02 14:20:00,51.4,50.0,29.71,ENE,62,0.0,-999.0,95,-99.99,,,0.00,weatherlink.com 1.10,2014-01-02 19:20:00,
2014-01-02 14:35:00,51.6,51.0,29.70,ENE,62,0.0,-999.0,96,-99.99,,,0.00,weatherlink.com 1.10,2014-01-02 19:35:00,
2014-01-02 14:50:00,51.4,50.0,29.69,ENE,62,0.0,-999.0,95,-99.99,,,0.00,weatherlink.com 1.10,2014-01-02 19:50:00,
2014-01-02 15:05:00,51.6,51.0,29.68,ENE,62,0.0,-999.0,96,-99.99,,,0.00,weatherlink.com 1.10,2014-01-02 20:05:00,
2014-01-02 15:20:00,51.9,51.0,29.68,ENE,62,0.0,-999.0,96,-99.99,,,0.00,weatherlink.com 1.10,2014-01-02 20:20:00,
2014-01-02 15:35:00,51.9,51.0,29.67,ENE,62,0.0,-999.0,96,-99.99,,,0.00,weatherlink.com 1.10,2014-01-02 20:35:00,
2014-01-02 15:50:00,51.7,51.0,29.66,SSE,157,0.0,-999.0,96,-99.99,,,0.00,weatherlink.com 1.10,2014-01-02 20:50:00,
2014-01-02 16:04:00,51.6,51.0,29.65,SSE,157,0.0,-999.0,96,-99.99,,,0.00,weatherlink.com 1.10,2014-01-02 21:04:00,
2014-01-02 16:19:00,51.6,51.0,29.64,SSE,157,0.0,-999.0,96,-99.99,,,0.00,weatherlink.com 1.10,2014-01-02 21:19:00,
2014-01-02 16:34:00,51.6,51.0,29.63,SSE,155,0.0,-999.0,96,-99.99,,,0.00,weatherlink.com 1.10,2014-01-02 21:34:00,
2014-01-02 16:50:00,51.7,51.0,29.61,SSE,155,0.0,-999.0,96,-99.99,,,0.00,weatherlink.com 1.10,2014-01-02 21:50:00,
2014-01-02 17:05:00,51.7,51.0,29.61,SE,138,0.0,-999.0,96,-99.99,,,0.00,weatherlink.com 1.10,2014-01-02 22:05:00,
2014-01-02 17:20:00,51.9,51.0,29.60,SE,138,0.0,-999.0,96,-99.99,,,0.00,weatherlink.com 1.10,2014-01-02 22:20:00,
2014-01-02 17:50:00,52.3,52.0,29.59,SE,138,0.0,-999.0,97,-99.99,,,0.00,weatherlink.com 1.10,2014-01-02 22:50:00,
2014-01-02 18:05:00,52.6,52.0,29.59,SE,138,0.0,-999.0,97,-99.99,,,0.00,weatherlink.com 1.10,2014-01-02 23:05:00,
2014-01-02 18:20:00,52.6,52.0,29.58,SE,138,0.0,-999.0,97,-99.99,,,0.00,weatherlink.com 1.10,2014-01-02 23:20:00,
2014-01-02 18:35:00,52.9,52.0,29.56,SE,138,0.0,-999.0,97,-99.99,,,0.00,weatherlink.com 1.10,2014-01-02 23:35:00,
2014-01-02 18:49:00,53.3,53.0,29.55,SE,144,0.0,-999.0,97,-99.99,,,0.00,weatherlink.com 1.10,2014-01-02 23:49:00,
2014-01-02 19:04:00,53.6,53.0,29.54,SE,144,0.0,-999.0,97,-99.99,,,0.00,weatherlink.com 1.10,2014-01-03 00:04:00,
2014-01-02 19:19:00,53.9,53.0,29.54,SE,144,0.0,-999.0,97,-99.99,,,0.00,weatherlink.com 1.10,2014-01-03 00:19:00,
2014-01-02 19:34:00,54.2,53.0,29.52,SE,144,0.0,-999.0,97,-99.99,,,0.00,weatherlink.com 1.10,2014-01-03 00:34:00,
2014-01-02 19:50:00,54.5,54.0,29.50,WNW,288,0.0,-999.0,97,-99.99,,,0.00,weatherlink.com 1.10,2014-01-03 00:50:00,
2014-01-02 20:05:00,54.7,54.0,29.50,SSE,157,0.0,-999.0,97,-99.99,,,0.00,weatherlink.com 1.10,2014-01-03 01:05:00,
2014-01-02 20:20:00,54.8,54.0,29.48,SSE,157,0.0,-999.0,97,-99.99,,,0.00,weatherlink.com 1.10,2014-01-03 01:20:00,
2014-01-02 20:35:00,55.1,54.0,29.47,SSE,157,0.0,-999.0,97,-99.99,,,0.00,weatherlink.com 1.10,2014-01-03 01:35:00,
2014-01-02 20:50:00,55.3,55.0,29.46,SSE,157,0.0,-999.0,97,-99.99,,,0.00,weatherlink.com 1.10,2014-01-03 01:50:00,
2014-01-02 21:05:00,56.0,56.0,29.45,SW,233,0.0,-999.0,98,-99.99,,,0.00,weatherlink.com 1.10,2014-01-03 02:05:00,
2014-01-02 21:20:00,55.7,55.0,29.47,NNW,336,9.0,-999.0,97,-99.99,,,0.00,weatherlink.com 1.10,2014-01-03 02:20:00,
2014-01-02 21:35:00,53.2,52.0,29.48,NW,318,8.0,-999.0,97,-99.99,,,0.00,weatherlink.com 1.10,2014-01-03 02:35:00,
2014-01-02 21:49:00,52.9,52.0,29.50,NW,320,9.0,-999.0,97,-99.99,,,0.00,weatherlink.com 1.10,2014-01-03 02:49:00,
2014-01-02 22:04:00,52.8,52.0,29.49,NNW,333,10.0,-999.0,96,-99.99,,,0.00,weatherlink.com 1.10,2014-01-03 03:04:00,
2014-01-02 22:20:00,52.8,52.0,29.49,NW,315,7.0,-999.0,96,-99.99,,,0.00,weatherlink.com 1.10,2014-01-03 03:20:00,
2014-01-02 22:34:00,52.6,52.0,29.50,NNW,329,4.0,-999.0,96,-99.99,,,0.00,weatherlink.com 1.10,2014-01-03 03:34:00,
2014-01-02 22:49:00,52.5,51.0,29.49,NW,325,1.0,-999.0,96,-99.99,,,0.00,weatherlink.com 1.10,2014-01-03 03:49:00,
2014-01-02 23:04:00,52.3,51.0,29.47,NW,319,0.0,-999.0,96,-99.99,,,0.00,weatherlink.com 1.10,2014-01-03 04:04:00,
2014-01-02 23:19:00,52.0,51.0,29.48,NW,306,7.0,-999.0,96,-99.99,,,0.00,weatherlink.com 1.10,2014-01-03 04:19:00,
2014-01-02 23:34:00,52.0,51.0,29.49,NW,320,8.0,-999.0,96,-99.99,,,0.00,weatherlink.com 1.10,2014-01-03 04:34:00,
2014-01-02 23:49:00,52.0,51.0,29.51,NW,318,0.0,-999.0,96,-99.99,,,0.00,weatherlink.com 1.10,2014-01-03 04:49:00,